Location: Unspecified
(0.0000°N, 0.0000°E)
Time: 10:24:43
(UTC+00:00)

deb r/b Ablestar - Pass Details

Date: 18 February 2026
Orbit: 903 x 2194 km, 67.6° (Epoch: 9 March)

Event Time Altitude Azimuth Distance (km) Brightness Sun altitude
Rises 19:54:45 0° 214° (SW) 4,719 ? -24.7°
Reaches altitude 10° 19:58:20 10° 222° (SW) 3,527 ? -25.6°
Maximum altitude 20:05:42 36° 285° (WNW) 1,786 ? -27.4°
Drops below altitude 10° 20:11:38 10° 350° (N) 2,811 ? -28.8°
Enters shadow 20:13:15 - 357° (N) 3,332 ? -29.2°
